(296655) = 2004 TQ78 = 2009 SS136

Discovered at Kitt Peak on 2009-09-18 by Spacewatch.

Orbit

Orbit type: Main Belt

Note: WebGL enabled browser required.

epoch2023-09-13.0
epoch JD2460200.5
perihelion date2019-04-20.56853
perihelion JD2458594.06853
argument of perihelion (°)57.12494
ascending node (°)310.48407
inclination (°)1.09960
eccentricity0.0817279
perihelion distance (AU)2.6377126
Tisserand w.r.t. Jupiter3.3
ΔV w.r.t. Earth (km/sec)10.1
semimajor axis (AU)2.8724739
mean anomaly (°)325.22350
mean daily motion (°/day)0.20245090
aphelion distance (AU)3.107
period (years)4.87
P-vector [x]0.99107709
P-vector [y]0.11498272
P-vector [z]0.06741785
Q-vector [x]-0.13248830
Q-vector [y]0.90520031
Q-vector [z]0.40380595
absolute magnitude17.18
phase slope0.15
uncertainty0
referenceMPEC 2023-R58
observations used148
oppositions16
arc length (days)8727
first opposition used1999
last opposition used2023
residual rms (arc-secs)0.83
perturbers coarse indicatorM-v
perturbers precise indicator003Ek
first observation date used1999-10-16.0
last observation date used2023-09-07.0
computer nameMPCLINUX
JD of orbit computation2456966.791128
perihelion JD uncertainty (days)1.7153E-04
argument of perihelion uncertainty (°)3.7565E-04
ascending node uncertainty (°)3.7397E-04
inclination uncertainty (°)4.0803E-06
eccentricity uncertainty 6.5220E-08
perihelion distance uncertainty (AU)1.8208E-07
Minimum Orbit Intersection Distances (in AU)
for orbit epoch: 2460200.5, reference: E2023-S63
Mercury2.27551
Venus1.91418
Earth1.63573
Mars1.21631
Jupiter2.30367
Saturn6.16812
Uranus15.3549
Neptune27.176

Observations

161 total observations over interval: 1999 10 16.366930 – 2023 09 17.331946
These data are available for download (format description).

Date (UT) J2000 RA J2000 Dec Magn Location Ref
1999 10 16.366930 23 46 00.462 +00 00 25.07 21.15 V 645 – Apache Point-Sloan Digital Sky Survey MPS 297094
1999 10 16.370402 23 46 00.352 +00 00 24.44 21.90   645 – Apache Point-Sloan Digital Sky Survey MPS 297094
2004 10 04.31070 01 02 36.75 +08 24 10.6 20.8 V 291 – LPL/Spacewatch II MPS 117784
2004 10 04.33516 01 02 35.53 +08 24 03.6 20.6 V 291 – LPL/Spacewatch II MPS 117784
2004 10 04.36368 01 02 34.11 +08 23 55.6 21.2 V 291 – LPL/Spacewatch II MPS 117784
2004 10 09.17027 00 58 40.36 +08 00 58.2 20.3 V 691 – Steward Observatory, Kitt Peak-Spacewatch MPS 117784
2004 10 09.19821 00 58 38.96 +08 00 49.9 20.4 V 691 – Steward Observatory, Kitt Peak-Spacewatch MPS 117784
2004 10 09.22534 00 58 37.57 +08 00 42.1 19.9 V 691 – Steward Observatory, Kitt Peak-Spacewatch MPS 117784
2006 01 22.30367 07 57 37.58 +21 03 03.9 21.4 V G96 – Mt. Lemmon Survey MPS 309562
2006 01 22.31130 07 57 37.18 +21 03 04.8 21.0 V G96 – Mt. Lemmon Survey MPS 309562
2006 01 22.31893 07 57 36.72 +21 03 05.9 20.9 V G96 – Mt. Lemmon Survey MPS 309562
2006 01 22.32657 07 57 36.28 +21 03 06.6 20.8 V G96 – Mt. Lemmon Survey MPS 309562
2007 03 14.33950 13 16 24.70 -09 33 35.2 22.0 V 691 – Steward Observatory, Kitt Peak-Spacewatch MPS 309562
2007 03 14.35713 13 16 24.10 -09 33 31.4 21.7 V 691 – Steward Observatory, Kitt Peak-Spacewatch MPS 309562
2007 03 14.37476 13 16 23.39 -09 33 28.9 21.7 V 691 – Steward Observatory, Kitt Peak-Spacewatch MPS 309562
2009 09 18.41121 02 18 05.04 +15 25 31.7 21.1 V 691 – Steward Observatory, Kitt Peak-Spacewatch MPS 297094
2009 09 18.42890 02 18 04.70 +15 25 30.7 21.0 V 691 – Steward Observatory, Kitt Peak-Spacewatch MPS 297094
2009 09 18.44658 02 18 04.34 +15 25 29.6 21.2 V 691 – Steward Observatory, Kitt Peak-Spacewatch MPS 297094
2009 09 22.43592 02 16 38.51 +15 20 34.2 20.9 V 691 – Steward Observatory, Kitt Peak-Spacewatch MPS 297094
2009 09 22.45359 02 16 38.02 +15 20 32.8 21.3 V 691 – Steward Observatory, Kitt Peak-Spacewatch MPS 297094
2009 09 22.47129 02 16 37.56 +15 20 30.9 21.1 V 691 – Steward Observatory, Kitt Peak-Spacewatch MPS 297094
2009 09 26.40530 02 14 50.08 +15 13 34.2 21.5 V 691 – Steward Observatory, Kitt Peak-Spacewatch MPS 297094
2009 09 26.42295 02 14 49.50 +15 13 31.6 21.1 V 691 – Steward Observatory, Kitt Peak-Spacewatch MPS 297095
2009 09 26.44060 02 14 48.98 +15 13 29.6 21.5 V 691 – Steward Observatory, Kitt Peak-Spacewatch MPS 297095
2009 10 21.37190 01 56 55.75 +13 48 19.8 20.4 V G96 – Mt. Lemmon Survey MPS 299504
2009 10 21.38295 01 56 55.14 +13 48 16.2 20.8 V G96 – Mt. Lemmon Survey MPS 299504
2009 10 21.39230 01 56 54.60 +13 48 13.6 20.6 V G96 – Mt. Lemmon Survey MPS 299504
2009 10 21.40149 01 56 54.16 +13 48 11.4 20.4 V G96 – Mt. Lemmon Survey MPS 299504
2009 10 21.44238 01 56 52.04 +13 48 00.1 20.4 V G96 – Mt. Lemmon Survey MPS 299504
2009 10 21.45071 01 56 51.57 +13 47 57.9 20.6 V G96 – Mt. Lemmon Survey MPS 299504
2009 10 21.45901 01 56 51.18 +13 47 55.6 20.6 V G96 – Mt. Lemmon Survey MPS 299504
2009 10 21.46742 01 56 50.74 +13 47 52.8 20.8 V G96 – Mt. Lemmon Survey MPS 299504
2009 10 25.15372 01 53 43.84 +13 31 16.3   691 – Steward Observatory, Kitt Peak-Spacewatch MPS 300811
2009 10 25.17090 01 53 42.96 +13 31 11.6   691 – Steward Observatory, Kitt Peak-Spacewatch MPS 300811
2009 10 25.18808 01 53 42.07 +13 31 06.8   691 – Steward Observatory, Kitt Peak-Spacewatch MPS 300811
2009 11 11.10979 01 40 32.64 +12 15 51.8   691 – Steward Observatory, Kitt Peak-Spacewatch MPS 302328
2009 11 11.12317 01 40 32.12 +12 15 48.2   691 – Steward Observatory, Kitt Peak-Spacewatch MPS 302328
2009 11 11.13657 01 40 31.56 +12 15 45.2   691 – Steward Observatory, Kitt Peak-Spacewatch MPS 302328
2009 11 19.11142 01 35 50.35 +11 46 19.4 21.3 V 691 – Steward Observatory, Kitt Peak-Spacewatch MPS 303410
2009 11 19.12226 01 35 50.02 +11 46 16.5 20.8 V 691 – Steward Observatory, Kitt Peak-Spacewatch MPS 303410
2009 11 19.13310 01 35 49.67 +11 46 14.6 21.4 V 691 – Steward Observatory, Kitt Peak-Spacewatch MPS 303410
2011 01 10.30568 09 00 01.86 +17 12 59.6 21.9 V 691 – Steward Observatory, Kitt Peak-Spacewatch MPS 365777
2011 01 10.32340 09 00 01.01 +17 13 02.7 21.1 V 691 – Steward Observatory, Kitt Peak-Spacewatch MPS 365777
2011 01 10.34114 09 00 00.21 +17 13 05.6 21.5 V 691 – Steward Observatory, Kitt Peak-Spacewatch MPS 365777
2011 02 09.25002 08 34 13.69 +18 44 24.1 21.5 V G96 – Mt. Lemmon Survey MPS 369607
2011 02 09.26127 08 34 13.04 +18 44 26.4 21.3 V G96 – Mt. Lemmon Survey MPS 369607
2011 02 09.27242 08 34 12.54 +18 44 27.8 21.7 V G96 – Mt. Lemmon Survey MPS 369607
2011 02 09.28365 08 34 11.92 +18 44 29.9 22.2 V G96 – Mt. Lemmon Survey MPS 369607
2012 04 16.40086 13 36 04.614 -11 42 35.67 21.3 w F51 – Pan-STARRS 1, Haleakala MPS 421797
2012 04 16.41408 13 36 03.947 -11 42 32.22 21.3 w F51 – Pan-STARRS 1, Haleakala MPS 421797
2012 04 16.44052 13 36 02.620 -11 42 25.15 21.2 w F51 – Pan-STARRS 1, Haleakala MPS 421797
2013 07 16.42012 19 43 40.914 -21 49 27.09 20.5 i F51 – Pan-STARRS 1, Haleakala MPS 472588
2013 07 16.44813 19 43 39.341 -21 49 30.24 20.7 r F51 – Pan-STARRS 1, Haleakala MPS 472588
2013 07 16.45954 19 43 38.737 -21 49 31.43 20.5 r F51 – Pan-STARRS 1, Haleakala MPS 472588
2014 10 28.53751 02 57 59.289 +18 42 53.72 21.1 w F51 – Pan-STARRS 1, Haleakala MPS 544031
2014 10 28.54953 02 57 58.667 +18 42 51.22 21.0 w F51 – Pan-STARRS 1, Haleakala MPS 544031
2014 10 28.56158 02 57 58.023 +18 42 48.55 21.0 w F51 – Pan-STARRS 1, Haleakala MPS 544031
2014 10 28.57364 02 57 57.403 +18 42 46.17 20.9 w F51 – Pan-STARRS 1, Haleakala MPS 544031
2014 10 30.22296 02 56 33.27 +18 37 01.0   691 – Steward Observatory, Kitt Peak-Spacewatch MPS 544031
2014 10 30.24331 02 56 32.20 +18 36 56.3   691 – Steward Observatory, Kitt Peak-Spacewatch MPS 544031
2014 10 30.26365 02 56 31.15 +18 36 52.6   691 – Steward Observatory, Kitt Peak-Spacewatch MPS 544031
2014 11 16.22061 02 41 42.28 +17 30 50.3 20.2 V G96 – Mt. Lemmon Survey MPS 547379
2014 11 16.22519 02 41 42.08 +17 30 49.0 20.2 V G96 – Mt. Lemmon Survey MPS 547379
2014 11 16.22978 02 41 41.80 +17 30 48.2 20.2 V G96 – Mt. Lemmon Survey MPS 547379
2014 11 16.23435 02 41 41.60 +17 30 47.5 20.4 V G96 – Mt. Lemmon Survey MPS 547379
2014 11 16.26191 02 41 40.17 +17 30 40.6 20.8 V G96 – Mt. Lemmon Survey MPS 547379
2014 11 16.26858 02 41 39.81 +17 30 39.3 20.8 V G96 – Mt. Lemmon Survey MPS 547379
2014 11 16.27524 02 41 39.47 +17 30 37.4 20.3 V G96 – Mt. Lemmon Survey MPS 547379
2014 11 17.30264 02 40 48.597 +17 26 31.49 20.8 w F51 – Pan-STARRS 1, Haleakala MPS 547379
2014 11 17.30331 02 40 48.568 +17 26 31.26 20.7 w F51 – Pan-STARRS 1, Haleakala MPS 547379
2014 11 17.31456 02 40 47.998 +17 26 28.63 20.8 w F51 – Pan-STARRS 1, Haleakala MPS 547379
2014 11 17.32654 02 40 47.376 +17 26 25.77 20.7 w F51 – Pan-STARRS 1, Haleakala MPS 547379
2014 11 17.32720 02 40 47.344 +17 26 25.65 20.7 w F51 – Pan-STARRS 1, Haleakala MPS 547379
2014 11 17.33869 02 40 46.754 +17 26 22.93 20.7 w F51 – Pan-STARRS 1, Haleakala MPS 547379
2014 11 17.33935 02 40 46.722 +17 26 22.70 20.7 w F51 – Pan-STARRS 1, Haleakala MPS 547379
2014 11 19.27161 02 39 12.898 +17 18 42.18 20.9 w F51 – Pan-STARRS 1, Haleakala MPS 547379
2014 11 19.29770 02 39 11.607 +17 18 36.21 20.9 w F51 – Pan-STARRS 1, Haleakala MPS 547379
2014 12 13.34294 02 25 41.517 +16 03 58.18 21.5 w F51 – Pan-STARRS 1, Haleakala MPS 552912
2014 12 13.35591 02 25 41.272 +16 03 56.81 21.5 w F51 – Pan-STARRS 1, Haleakala MPS 552912
2014 12 13.36884 02 25 41.044 +16 03 55.21 21.4 w F51 – Pan-STARRS 1, Haleakala MPS 552912
2014 12 13.38182 02 25 40.795 +16 03 53.78 21.7 w F51 – Pan-STARRS 1, Haleakala MPS 552912
2016 02 09.23104 09 24 42.66 +14 57 47.7 20.7 V G96 – Mt. Lemmon Survey MPS 681984
2016 02 09.23613 09 24 42.40 +14 57 49.2 21.5 V G96 – Mt. Lemmon Survey MPS 681984
2016 02 09.24122 09 24 42.10 +14 57 49.9 21.4 V G96 – Mt. Lemmon Survey MPS 681984
2016 02 09.24633 09 24 41.79 +14 57 51.1 20.6 V G96 – Mt. Lemmon Survey MPS 681985
2016 02 15.34746 09 19 25.153 +15 20 35.02 21.2 r F51 – Pan-STARRS 1, Haleakala MPS 685833
2016 02 15.35923 09 19 24.505 +15 20 37.37 21.1 r F51 – Pan-STARRS 1, Haleakala MPS 685833
